SATELIOT_1 (60550 NORAD) Tracking and Keplerian Element Data

This shows tracking and keplerian element data for the satellite.

Feedback or suggestion? Click here.




ElementValue
Catalog60550
NameSATELIOT_1
Epoch Orbit848
Epoch Day286.72126227
Epoch Year2024
RAAN1.2922
Inclination97.7354
Eccentricity0.0006763
Argument of Perigee332.5798
Mean Anonmoly27.5064
Mean Motion14.93702599
Decay Rate6.914E-05
L11 60550U 24149CL 24286.72126227 .00006914 00000+0 65825-3 0 9995
L22 60550 97.7354 1.2922 0006763 332.5798 27.5064 14.93702599 8481



Live tracking and technical data element details for SATELIOT_1 (NORAD 60550). SATELIOT_1 can be tracked NOW for your location showing map with azimuth and elevation plus other details from your city location.







IsCatalogInMostPopularTable: catalog: 60550, numindb: 5
Update: records affected: 1



GetName: 60550 SATELIOT_1

Hit Count: updated at: Wed, 04 Dec 2024 18:32:54 GMT